www.pogodaiklimat.ru

Архив погоды в Новом Уренгое (Ямало-Ненецкий АО, Россия)

Время
(UTC), дата
09 18.02
12 18.02
15 18.02
18 18.02
21 18.02
00 19.02
03 19.02
06 19.02
09 19.02
12 19.02
15 19.02
18 19.02
21 19.02
00 20.02
03 20.02
06 20.02
09 20.02
12 20.02
15 20.02
18 20.02
21 20.02
00 21.02
03 21.02
06 21.02
09 21.02
12 21.02
15 21.02
18 21.02
21 21.02
00 22.02
03 22.02
06 22.02
09 22.02
12 22.02
15 22.02
18 22.02
21 22.02
00 23.02
03 23.02
06 23.02
09 23.02
12 23.02
15 23.02
18 23.02
21 23.02
00 24.02
03 24.02
06 24.02
09 24.02
12 24.02
15 24.02
18 24.02
21 24.02
00 25.02
03 25.02
Ветер
(напр.,м/с)
Видим. Явления Облачность Т
(С)
Тd
(С)
f
(%)
Тe
(С)
Тes
(С)
Комфортность P
(гПа)
Po
(гПа)
Тmin
(С)
Tmax
(С)
R
(мм)
R24
(мм)
S
(см)
Ю 7 10 км позёмок {метель} [диам. изморози 1 мм] 10/0 [Cs] -19.7 -22.0 82 -31 -31 опасность обморожения 1035.5 1026.8
Ю 6 {10} 10 км позёмок {метель} [диам. изморози 0 мм] 10/0 [Ci fib] -20.8 -23.5 79 -32 -32 опасность обморожения 1033.3 1024.7
Ю 6 4000 м позёмок {метель} 10/0 [Ci fib] -24.0 -26.7 78 -36 -36 опасность обморожения 1030.5 1021.7 -19.7
Ю 6 {10} 4000 м позёмок {метель} 10/0 [Ci fib] -22.2 -24.8 79 -34 -34 опасность обморожения 1027.2 1018.5
Ю 8-11 {13} 4000 м позёмок {метель} 10/0 [Ci fib] -22.5 -25.1 79 -36 -36 опасность обморожения 1023.6 1015.0
Ю 10-14 {14} 10 км сильный позёмок {метель} 10/0 [Ci fib] -19.6 -22.0 81 -33 -33 опасность обморожения 1020.5 1012.0
Ю 10-13 {14} 10 км сильный позёмок {метель} 10/0 [Ac trans Ci fib] -19.6 -22.0 81 -33 -33 опасность обморожения 1018.4 1010.0 -24.0 55
Ю 10-13 {15} 10 км сильный позёмок {метель} 10/5 1500 м [Sc Ac und] -18.6 -21.0 81 -32 -32 опасность обморожения 1017.5 1009.1
Ю 9-11 {13} 10 км сильный позёмок {метель} 10/4 1500 м [Sc Ci sp] -17.6 -20.2 80 -30 -30 очень холодно 1016.7 1008.3
Ю 7 {13} 10 км позёмок {метель} 10/4 1500 м [Sc Ci fib] -18.2 -20.9 79 -29 -29 очень холодно 1016.3 1007.9
Ю 8-11 {12} 10 км позёмок {метель} 10/0 [Ac trans Ci fib] -17.9 -20.6 79 -30 -30 очень холодно 1016.4 1008.0 -17.4
Ю 9-11 {12} 10 км позёмок {метель} 10/0 [Ac trans Ci fib] -17.2 -20.0 79 -29 -29 очень холодно 1016.1 1007.7
Ю 9-10 {11} 10 км позёмок {метель} 10/4 1000 м [Sc Ci fib] -17.0 -20.0 77 -29 -29 очень холодно 1016.3 1007.9
ЮЗ 9-11 {11} 10 км позёмок {метель} 10/0 [Ac trans Ci fib] -15.6 -18.0 82 -27 -27 по сезону 1017.1 1008.7
Ю 8 {10} 10 км позёмок {метель} 10/8 300 м [Sc Ci fib] -16.7 -19.1 82 -28 -28 по сезону 1018.5 1010.1 -18.0 56
ЮЗ 7 {11} 20 км позёмок {ливн. снег, метель} 4/0 [Ci fib] -15.0 -17.5 81 -25 -25 по сезону 1019.5 1011.2
Ю 9-10 {11} 20 км позёмок {метель} 3/0 [Ci fib] -12.8 -15.6 79 -24 -23 по сезону 1020.0 1011.8
Ю 10-13 {13} 10 км сильный позёмок {метель} 6/0 [Ac trans Ci fib] -13.7 -16.2 81 -25 -25 по сезону 1020.1 1011.8
Ю 10-14 {14} 10 км сильный позёмок {метель} 10/0 [Ac trans Ci fib] -13.1 -15.5 82 -24 -24 по сезону 1019.6 1011.3 -12.4 0.0
Ю 10-12 {15} 10 км сильный позёмок {метель} 10/0 [Ac trans Ci fib] -15.0 -17.2 83 -27 -27 по сезону 1018.9 1010.6
Ю 10-12 {13} 10 км сильный позёмок {метель} 10/0 [Ci fib] -15.0 -17.2 83 -27 -27 по сезону 1017.9 1009.6
Ю 11-14 {15} 4000 м слаб. ливневой снег {метель} 10/5 600 м [Cb calv Ci fib] -14.1 -16.0 85 -26 -26 по сезону 1016.9 1008.7
Ю 12-15 {16} 10 км сильный позёмок {ливн. снег, метель} 10/3 1000 м [Sc Ac trans Ci fib] -14.8 -17.0 83 -28 -28 по сезону 1016.3 1008.0 -15.6 0.0 55
Ю 11-15 {17} 4000 м слаб. ливневой снег {метель} 10/5 1000 м [Cb calv Ac trans Ci fib] -14.7 -16.8 84 -27 -27 по сезону 1016.7 1008.4
Ю 10-14 {14} 4000 м слаб. ливневой снег {метель} 10/5 1000 м [Cb calv Ac und] -14.7 -16.8 84 -27 -27 по сезону 1017.7 1009.4
Ю 9-12 {15} 4000 м слаб. ливневой снег {метель} 10/5 600 м [Cb calv Ac und] -14.7 -16.7 85 -26 -26 по сезону 1018.8 1010.5
Ю 7 {12} 10 км слаб. ливневой снег {метель} 10/5 1000 м [Cb calv Ac und] -15.0 -17.1 84 -25 -25 по сезону 1020.6 1012.2 -14.4 0.3
Ю 7 {12} 10 км слаб. ливневой снег {метель} 10/5 300 м [Cb calv Ac trans Ci fib] -15.4 -17.5 84 -26 -26 по сезону 1021.0 1012.7
Ю 6 10 км слаб. ливневой снег {метель} 10/5 300 м [Cb calv Ac und] -14.4 -16.5 84 -24 -24 по сезону 1021.6 1013.3
Ю 6 10 км слаб. ливневой снег {метель} 10/5 1000 м [Cb calv Ac und] -14.6 -16.7 84 -24 -24 по сезону 1021.9 1013.6
Ю 5 10 км слаб. ливневой снег {метель} 10/5 600 м [Cb calv Ac und] -15.3 -17.5 83 -24 -24 по сезону 1022.7 1014.3 -16.2 0.2 56
Ю 5 10 км позёмок {ливн. снег, метель} 10/9 600 м [Cb calv Ac und] -15.2 -17.5 83 -24 -24 по сезону 1022.5 1014.1
Ю 5 20 км позёмок {метель} 10/4 1000 м [Sc Ci fib] -15.5 -18.1 80 -24 -24 по сезону 1023.1 1014.7
Ю 4 10 км {метель} 10/8 1000 м [Sc Ci fib] -16.2 -18.7 81 -24 -24 по сезону 1024.3 1015.9
Ю 4 10 км 10/4 300 м [Sc Ci fib] -18.2 -20.6 81 -27 -27 по сезону 1025.1 1016.6 -15.0 0.0
Ю 5 10 км 10/3 300 м [Sc Ac trans Ci fib] -18.6 -20.9 82 -28 -28 по сезону 1025.4 1016.9
Ю 5 10 км слаб. снег 10/4 300 м [Sc As op] -18.3 -20.5 83 -28 -28 по сезону 1026.2 1017.7
Ю 4 10 км {снег} 10/4 300 м [Sc Ac trans Ci fib] -19.4 -21.7 82 -28 -28 по сезону 1026.7 1018.2
Ю 3 4000 м слаб. снег 10/5 300 м [Sc As op] -19.2 -21.4 83 -27 -27 по сезону 1027.6 1019.0 -19.6 0.0 56
Ю 3 20 км в посл. час ливневой снег 10/3 300 м [Cb calv Ci fib] -19.3 -21.8 81 -27 -26 по сезону 1028.0 1019.5
ЮВ 3 20 км 10/3 300 м [Sc Ci fib] -19.0 -21.7 79 -26 -26 по сезону 1028.0 1019.5
ЮВ 4 10 км 10/0 [Ac trans Ci fib] -21.2 -23.8 79 -30 -30 прохладно 1027.8 1019.2
ЮВ 7 10 км позёмок {метель} 10/0 [Ac trans Ci fib] -21.0 -23.7 79 -33 -33 опасность обморожения 1028.0 1019.4 -18.2 0.3
ЮВ 4 10 км слаб. ливневой снег {метель} 10/6 1000 м [Cb calv Ac trans Ci fib] -18.9 -21.3 81 -28 -28 по сезону 1027.4 1018.9
ЮВ 4 10 км {ливн. снег, метель} 10/8 1000 м [Sc Ci fib] -21.1 -23.4 82 -30 -30 по сезону 1026.6 1018.0
ЮВ 5 10 км слаб. снег {ливн. снег} 10/6 1000 м [Sc Cs] -19.2 -21.4 83 -29 -29 по сезону 1026.1 1017.6
ЮВ 5 10 км {снег, метель} 10/4 1000 м [Sc Ci fib] -20.0 -22.1 83 -30 -30 по сезону 1026.4 1017.9 -21.4 0.2 56
ЮВ 6 10 км позёмок {снег, метель} 10/0 [Cs] -17.9 -20.3 81 -28 -28 по сезону 1025.8 1017.4
ЮВ 4 20 км {снег, метель} 10/0 [Cs] -17.3 -20.3 77 -26 -25 по сезону 1026.2 1017.7
ЮВ 6 10 км позёмок {снег, метель} 10/0 [Ac trans Ci fib] -17.4 -20.4 77 -28 -28 по сезону 1026.5 1018.0
Ю 7 {10} 10 км позёмок {метель} 10/0 [Ac trans Cs] -18.5 -21.4 78 -30 -30 по сезону 1026.1 1017.7 -17.2 0.0
Ю 6 {10} 10 км слаб. ливневой снег {метель} 10/6 600 м [Cb calv Ci fib] -17.7 -20.2 81 -28 -28 по сезону 1025.8 1017.3
Ю 6 4000 м слаб. ливневой снег {метель} 10/6 600 м [Cb calv Ac und] -17.5 -19.7 83 -28 -28 по сезону 1025.2 1016.7
ЮВ 8-10 {10} 10 км слаб. ливневой снег {метель} 10/5 1000 м [Cb calv Ac und] -17.7 -20.0 82 -29 -29 по сезону 1025.0 1016.5
ЮВ 7 {11} 4000 м слаб. ливневой снег {метель} 10/6 600 м [Cb calv Ac und] -16.9 -19.1 83 -28 -28 по сезону 1025.4 1017.0 -18.5 0.6 57
Местоположение метеостанции Новый Уренгой (Ямало-Ненецкий АО, Россия): широта 66.10 долгота 76.78 высота над уровнем моря 62 м.
В архиве по умолчанию представлена погода в Новом Уренгое за последнюю неделю. Архивные данные за месяц целиком и за предыдущие месяцы, начиная с января 2011 года, Вы можете получить, выбрав интересующий диапазон дат из раскрывающегося списка и нажав кнопку "Найти!".
*Определитесь, кто Вы:
Внимание! Время в таблицах - всемирное. Для получения местного времени необходимо прибавить поправку, которая равна 5 ч.
Некоторые строки с данными для отдельных станций могут быть выделены курсивом. Это означает, что фактические данные отсутствуют по различным причинам, а приведенные значения являются расчетными модельными данными для данного пункта наблюдений.
Смотрите также архив погоды в соседних городах и на ближайших метеорологических станциях:
Партнеры нашего сайта:      
Пояснения к столбцам:
  • Ветер - указаны скорость ветра в м/с - средняя за 10 мин, порывы в срок и между сроками (в фигурных скобках) и направление, откуда дует ветер: С - северный,
  • СВ - северо-восточный, В - восточный, ЮВ - юго-восточный, Ю - южный, ЮЗ - юго-западный, З - западный, СЗ - северо-западный.
  • Видимость - горизонтальная дальность видимости в метрах или километрах. При видимости от 1 до 10 км при отсутствии осадков обычно наблюдается дымка, при ухудшении видимости до 1 км и менее - туман. В сухую погоду видимость может ухудшаться дымом, пылью или мглою.
  • Явления - указаны атмосферные явления, наблюдавшиеся в срок или в последний час перед сроком; фигурными скобками обозначены явления, наблюдавшиеся между сроками (за 1-3 часа до срока); квадратными скобками обозначены град или гололедные отложения с указанием их диаметра в мм.
  • Облачность - указаны через наклонную черту общая и нижняя облачность в баллах и высота нижней границы облаков в метрах; квадратными скобками обозначены формы облаков: Ci - перистые, Cs - перисто-слоистые, Cc - перисто-кучевые, Ac - высококучевые, As - высокослоистые, Sc - слоисто-кучевые, Ns - слоисто-дождевые, Cu - кучевые, Cb - кучево-дождевые. Подробнее классификацию облаков см. в Атласе облаков (PDF).
  • T - Температура воздуха - температура, измеренная на высоте 2 м над землей.
  • Td - Температура точки росы - температура, при понижении до которой содержащийся в воздухе водяной пар достигнет насыщения.
  • f - Относительная влажность воздуха - влажноcть воздуха, измеренная на высоте 2 м над землей.
  • Te - Эффективная температура - температура, которую ощущает одетый по сезону человек в тени. Характеристика душности погоды. При расчете учитывается влияние влажности воздуха и скорости ветра на теплоощущения человека.
  • Tes - Эффективная температура на солнце - температура, которую ощущает человек, с поправкой на солнечный нагрев. Характеристика знойности погоды. Зависит от высоты солнца над горизонтом, облачности и скорости ветра. Ночью, в пасмурную погоду, а также при ветре 12 м/с и более поправка равна нулю.
  • P - Атмосферное давление - приведенное к уровню моря атмосферное давление.
  • Po - Атмосферное давление - измеренное на уровне метеостанции атмосферное давление.
  • Tmin - Минимальная температура - минимум температуры воздуха на высоте 2 м над землей.
  • Tmax - Максимальная температура - максимум температуры воздуха на высоте 2 м над землей.
  • R - Количество осадков - Количество выпавших осадков за период времени, мм. При наведении курсора мыши на число - период времени, за который выпало указанное количество осадков.
  • R24 - Количество осадков - Количество выпавших осадков за 24 часа, мм.
  • S - Снежный покров - Высота снежного покрова, см. При наведении курсора мыши на число - состояние снежного покрова и степень покрытия местности в баллах.